Regional Weather Roundup
Issued by NWS

Home | Current Version | Previous Version | Graphics & Text | Print | Product List | Glossary On
Versions: 1 2 3 4 5 6 7 8 9 10 11 12 13 14 15 16 17 18 19 20 21 22 23 24 25 26 27 28 29 30 31 32 33 34 35 36 37 38 39 40 41 42 43 44 45 46 47 48 49 50
000
ASUS43 KMKX 100000
RWRWI

WISCONSIN REGIONAL WEATHER ROUNDUP
NATIONAL WEATHER SERVICE MILWAUKEE/SULLIVAN WI
700 PM CDT WED JUL 09 2014

NOTE: "FAIR" INDICATES FEW OR NO CLOUDS BELOW 12,000 FEET WITH NO
SIGNIFICANT WEATHER AND/OR OBSTRUCTIONS TO VISIBILITY.

WIZ001-002-006>008-014>016-023>028-100100-
NORTHWEST WISCONSIN

CITY           SKY/WX    TMP DP  RH WIND       PRES   REMARKS
SUPERIOR ARPT  MOSUNNY   73  51  46 NE5       29.98S
ASHLAND        SUNNY     70  49  47 CALM      30.01S
6HR MIN TEMP:  64; 6HR MAX TEMP:  71;

HAYWARD        SUNNY     72  48  42 N6        30.01S
6HR MIN TEMP:  66; 6HR MAX TEMP:  73;

SIREN          SUNNY     71  54  54 CALM      30.00S
RICE LAKE      SUNNY     72  51  47 NW3       30.02S
LADYSMITH      MOSUNNY   71  51  48 N6        30.03S
EAU CLAIRE     NOT AVBL
MENOMONIE      MOCLDY    75  53  45 NW5       30.00S
NEW RICHMOND   SUNNY     74  53  47 NW6       30.00S
OSCEOLA        MOSUNNY   75  50  41 CALM      30.01S
$$

WIZ003>005-009-010-017-018-100100-
NORTH CENTRAL WISCONSIN

CITY           SKY/WX    TMP DP  RH WIND       PRES   REMARKS
WOODRUFF       SUNNY     67  47  47 N7        30.03R
RHINELANDER    SUNNY     65  46  50 NW5       30.03S
6HR MIN TEMP:  62; 6HR MAX TEMP:  66;

EAGLE RIVER    SUNNY     62  44  51 NW7       30.02S
LAND O LAKES   SUNNY     65  45  49 N7        30.03S
PHILLIPS       MOSUNNY   67  49  51 NW5       30.02S
TOMAHAWK       MOSUNNY   65  48  53 CALM      30.03S
MEDFORD        SUNNY     66  49  54 N7        30.02S
MERRILL        SUNNY     68  49  50 N7        30.02R
$$

WIZ029-030-035-036-043>047-100100-
CENTRAL WISCONSIN

CITY           SKY/WX    TMP DP  RH WIND       PRES   REMARKS
WAUSAU         MOSUNNY   69  47  45 N9        30.00S
6HR MIN TEMP:  67; 6HR MAX TEMP:  71; 6HR PCP: TRACE;

MOSINEE        MOSUNNY   66  48  52 N8        30.03S
MARSHFIELD     SUNNY     70  52  52 NW9       30.01S
6HR MIN TEMP:  67; 6HR MAX TEMP:  72;

STEVENS POINT  SUNNY     67  48  50 N6        30.02S
WAUPACA        SUNNY     72  48  42 N8        30.01S
WAUTOMA        NOT AVBL
WISC RAPIDS    SUNNY     72  49  44 NW9       30.02S
6HR MIN TEMP:  69; 6HR MAX TEMP:  75;

CAMP DOUGLAS   NOT AVBL
$$

WIZ011>013-019>022-031-037>040-048>050-100100-
NORTHEAST WISCONSIN

CITY           SKY/WX    TMP DP  RH WIND       PRES   REMARKS
ANTIGO         MOSUNNY   65  48  55 NW7       30.02S
STURGEON BAY   SUNNY     64  50  59 NW3       30.01R
6HR MIN TEMP:  61; 6HR MAX TEMP:  66; 6HR PCP:  0.01;

GREEN BAY      PTSUNNY   69  50  50 N7        29.99S
6HR MIN TEMP:  68; 6HR MAX TEMP:  73;

MANITOWOC      NOT AVBL
APPLETON       MOSUNNY   66  46  48 N9        30.01R
CLINTONVILLE   SUNNY     70  45  40 N5        30.00S
OSHKOSH        SUNNY     70  50  49 NW8       30.00S
6HR MIN TEMP:  69; 6HR MAX TEMP:  73;

$$

WIZ032>034-041-042-053>061-100100-
SOUTHWEST WISCONSIN

CITY           SKY/WX    TMP DP  RH WIND       PRES   REMARKS
LA CROSSE      SUNNY     78  52  40 NW5       29.99F
6HR MIN TEMP:  74; 6HR MAX TEMP:  79;

SPARTA         PTSUNNY   72  52  49 N3        30.02S
VIROQUA        FAIR      73  54  51 N6        30.03S
BOSCOBEL       MOSUNNY   77  52  41 VRB3      30.01S
6HR MIN TEMP:  74; 6HR MAX TEMP:  79;

PRAIRIE DU CHI SUNNY     75  52  44 CALM      30.00S
PLATTEVILLE    FAIR      74  53  47 N5        30.03S
$$

WIZ056-057-062-063-064-067-068-100100-
SOUTH CENTRAL WISCONSIN

CITY           SKY/WX    TMP DP  RH WIND       PRES   REMARKS
BARABOO/DELLS  MOSUNNY   73  47  40 NW3       30.02S
LONE ROCK      NOT AVBL
WATERTOWN      SUNNY     70  50  49 N8        30.01R
MADISON        MOSUNNY   74  51  44 NW6       30.01S
6HR MIN TEMP:  72; 6HR MAX TEMP:  76;

MIDDLETON      FAIR      74  48  40 NW6       30.02S
MONROE         MOSUNNY   72  52  49 N7        30.02S
JANESVILLE     MOSUNNY   75  46  35 N15       30.01R
$$

WIZ051-052-058>065-066-070>072-100100-
SOUTHEAST WISCONSIN

CITY           SKY/WX    TMP DP  RH WIND       PRES   REMARKS
MILWAUKEE      MOSUNNY   67  57  70 SE7       30.00S
6HR MIN TEMP:  65; 6HR MAX TEMP:  75;

WAUKESHA       MOSUNNY   70  46  43 NW14      30.02R
MILWAUKEE/TIMM SUNNY     72  45  37 N12       30.00R
RACINE         SUNNY     67  56  67 S6        30.02S
6HR MIN TEMP:  65; 6HR MAX TEMP:  76;

BURLINGTON     SUNNY     70  47  44 N12       30.01R
KENOSHA        SUNNY     68  59  73 E3        30.01R
6HR MIN TEMP:  68; 6HR MAX TEMP:  76;

FOND DU LAC    CLOUDY    69  50  50 N7        30.01R
6HR MIN TEMP:  69; 6HR MAX TEMP:  74;

SHEBOYGAN      CLOUDY    71  51  49 NW8       30.00R
6HR MIN TEMP:  67; 6HR MAX TEMP:  73;

WEST BEND      CLOUDY    68  46  45 N5        30.01R
JUNEAU         MOSUNNY   70  33  25 W6        30.02S
$$

LSZ147-162-100100-
LAKE SUPERIOR

STATION/POSITION TIME  TEMP    WIND        PRES    WAVE
                       AIR SEA DIR/SP/G            HT/PER
                 (UTC) (F)     (DEG/KT/KT) (MB)    (FT/S)
W MID LAKE BUOY  2250   45 38  210/ 10/ 10 1016.0R   0
DEVILS ISLAND    2300   67     180/  4/  7 1015.6F
PORT WING        2300   74      10/  1/  3 1015.6S
SAXON HARBOR     2340             CALM     1016.3F
$$

LMZ867-665-643>646-100100-
LAKE MICHIGAN

STATION/POSITION TIME  TEMP    WIND        PRES    WAVE
                       AIR SEA DIR/SP/G            HT/PER
                 (UTC) (F)     (DEG/KT/KT) (MB)    (FT/S)
N MID LAKE BUOY  2250   58 56  240/  8/  8 1015.1R   0
NORTHPORT PIER   2300   64     230/  2/  3 1015.2S
SISTER BAY       2255   63      20/  7/  9   N/A
KEWAUNEE LAKESHO 2300   55     170/  7/  8 1016.6R
SHEBOYGAN LAKESH 2300   60     180/ 13/ 13 1015.9R
PORT WASHINGTON  2300   65     190/  4/  7 1016.3S
ATWATER BUOY     2300   62     160/  6     1016.8R
MILWAUKEE LAKESH 2300   61      60/  3/  4   N/A
S MID LAKE BUOY  2250   60 58   CALM  /  2 1016.0R   0
KENOSHA   LAKESH 2300   67     130/  4/  5   N/A
$$

TC  - TEMPERATURE IN CELSIUS
VSB - VISIBILITY IN STATUTE MILES
WCI - WIND CHILL INDEX
HX  - HEAT INDEX




USA.gov is the U.S. government's official web portal to all federal, state and local government web resources and services.